User: anonymous   Login
Location: La Comballaz
(46.3780°N, 7.0817°E)
Time: 16:28:10
(UTC+00:00)
Language:

Meteor 2-10 Rocket - Orbit

View from above orbital plane
View from above orbital plane
View from above satellite
View from above satellite

Ground track
Ground track

The orbit data is extracted from the following two-line orbital elements,

1 14453U 83109B   20184.91176780 +.00000036 +00000-0 +87688-5 0  9993
2 14453 081.1672 067.8628 0105993 087.2528 274.0777 14.24730713905752
Epoch (UTC): 02 July 2020 21:52:56
Eccentricity: 0.0105993
inclination: 81.1672°
perigee height: 733 km
apogee height: 885 km
right ascension of ascending node: 67.8628°
argument of perigee: 87.2528°
revolutions per day: 14.24730713
mean anomaly at epoch: 274.0777°
orbit number at epoch: 90575

The dashed part of the orbit path shows where the satellite is in the earth's shadow,  

DLR